Location: Bogis-Bossey
(46.3500°N, 6.1667°E)
Time: 17:25:00
(UTC+00:00)

SeaSat 1 - Pass Details

Date: 17 August 2022
Orbit: 744 x 746 km, 108.0° (Epoch: 30 September)

Event Time Altitude Azimuth Distance (km) Brightness Sun altitude
Exits shadow 19:03:27 - 140° (SE) 2,983 5.0 -4.3°
Reaches altitude 10° 19:05:15 10° 138° (SE) 2,253 4.4 -4.6°
Maximum altitude 19:10:06 64° 58° (ENE) 824 2.6 -5.4°
Drops below altitude 10° 19:14:59 10° 337° (NNW) 2,269 5.8 -6.1°
Sets 19:17:16 0° 335° (NNW) 3,197 6.6 -6.5°
